SCP
0 0 0 0 0 0 0 0 0 0 0 0 0 0 0 0 0 0 0 0 0 0 0 0 0 0 0 0 0 0 0 0 0 0 0 0 0 1
0 0 0 0 0 0 0 0 0 0 0 0 0 0 0 0 0 0 0 0 0 0 0 0 0 0 0 0 0 0 0 0 0 0 0 0 0 1
0 0 0 0 0 0 0 0 0 0 0 0 0 0 0 0 0 0 0 0 0 0 0 0 0 0 0 0 0 0 0 0 0 0 0 0 0 0
0 0 0 0 0 0 0 0 0 0 0 0 0 0 0 0 0 0 0 0 0 0 0 0 0 0 0 0 0 0 0 0 0 0 0 0 0 0
0 0 0 0 0 0 0 0 0 0 0 0 0 0 0 0 0 0 0 0 0 0 0 0 0 0 0 0 0 0 0 0 0 0 0 0 0 0
0 0 0 0 0 0 0 0 0 0 0 0 0 0 0 0 0 0 0 0 0 0 0 0 0 0 0 0 0 0 0 0 0 0 0 0 0 0
0 0 0 0 0 0 0 0 0 0 0 0 0 0 0 0 0 0 0 0 0 0 0 0 0 0 0 0 0 0 0 0 0 0 0 0 0 0
0 0 0 0 0 0 0 0 0 0 0 0 0 0 0 0 0 0 0 0 0 0 0 0 0 0 0 0 0 0 0 0 0 0 0 0 0 0
0 0 0 0 0 0 0 0 0 0 0 0 0 0 0 0 0 0 0 0 0 0 0 0 0 0 0 0 0 0 0 0 0 0 0 0 0 0
0 0 0 0 0 0 0 0 0 0 0 0 0 0 0 0 0 0 0 0 0 0 0 0 0 0 0 0 0 0 0 0 0 0 0 0 0 0
0 0 0 0 0 0 0 0 0 0 0 0 0 0 0 0 0 0 0 0 0 0 0 0 0 0 0 0 0 0 0 0 0 0 0 0 0 0
0 0 0 0 0 0 0 0 0 0 0 0 0 0 0 0 0 0 0 0 0 0 0 0 0 0 0 0 0 0 0 0 0 0 0 0 0 0
0 0 0 0 0 0 0 0 0 0 0 0 0 0 0 0 0 0 0 0 0 0 0 0 0 0 0 0 0 0 0 0 0 0 0 0 0 0
0 0 0 0 0 0 0 0 0 0 0 0 0 0 0 0 0 0 0 0 0 0 0 0 0 0 0 0 0 0 0 0 0 0 0 0 0 0
0 0 0 0 0 0 0 0 0 0 0 0 0 0 0 0 0 0 0 0 0 0 0 0 0 0 0 0 0 0 0 0 0 0 0 0 0 0
0 0 0 0 0 0 0 0 0 0 0 0 0 0 0 0 0 0 0 0 0 0 0 0 0 0 0 0 0 0 0 0 0 0 0 0 0 0
0 0 0 0 0 0 0 0 0 0 0 0 0 0 0 0 0 0 0 0 0 0 0 0 0 0 0 0 0 0 0 0 0 0 0 0 0 0
0 0 0 0 0 0 0 0 0 0 0 0 0 0 0 0 0 0 0 0 0 0 0 0 0 0 0 0 0 0 0 0 0 0 0 0 0 0
0 0 0 0 0 0 0 0 0 0 0 0 0 0 0 0 0 0 0 0 0 0 0 0 0 0 0 0 0 0 0 0 0 0 0 0 0 0
0 0 0 0 0 0 0 0 0 0 0 0 0 0 0 0 0 0 0 0 0 0 0 0 0 0 0 0 0 0 0 0 0 0 0 0 0 0
0 0 0 0 0 0 0 0 0 0 0 0 0 0 0 0 0 0 0 0 0 0 0 0 0 0 0 0 0 0 0 0 0 0 0 0 0 0
0 0 0 0 0 0 0 0 0 0 0 0 0 0 0 0 0 0 0 0 0 0 0 0 0 0 0 0 0 0 0 0 0 0 0 0 0 0
0 0 0 0 0 0 0 0 0 0 0 0 0 0 0 0 0 0 0 0 0 0 0 0 0 0 0 0 0 0 0 0 0 0 0 0 0 0
Wind_Speed
2 2 2 2 2 2 2 2 2 3 4 2 2 2 2 2 4 3 3 7 8 9 9 9 8 8 8 8 8 9 9 9 9 9 9 9 10 10
2 2 2 2 2 1 2 2 2 3 4 2 2 2 3 3 5 3 3 8 9 9 9 9 8 8 8 8 8 8 8 9 9 9 10 10 10 10
3 3 4 3 2 2 2 2 2 3 5 5 2 2 3 3 4 3 3 4 4 9 10 10 9 8 8 8 8 8 8 9 9 9 10 10 10 10
4 3 4 3 3 2 2 3 3 3 4 6 4 3 3 3 4 4 4 4 4 8 10 10 9 8 9 8 8 8 8 8 8 9 9 10 10 10
4 4 4 4 4 3 3 3 3 3 3 4 5 3 3 3 3 4 4 4 4 6 8 9 9 9 9 9 8 8 8 8 8 9 9 10 10 10
5 5 5 5 5 5 4 4 3 3 3 4 4 4 3 3 2 3 4 3 4 4 6 7 8 9 9 8 8 8 7 8 8 9 9 9 9 10
5 5 6 7 8 7 5 4 4 4 3 4 4 4 4 3 3 3 4 4 4 3 3 4 4 3 4 7 8 8 8 8 8 9 9 9 9 10
5 5 5 6 8 10 10 9 7 6 5 5 5 5 6 4 3 3 3 4 5 2 2 4 3 4 4 4 8 9 8 8 8 9 9 10 10 10
5 5 5 5 7 5 7 9 9 11 11 7 6 7 6 5 4 4 4 5 6 3 3 5 3 4 4 5 9 9 8 7 8 9 9 10 10 9
5 6 6 5 5 5 5 5 6 6 7 6 6 6 6 5 5 5 5 5 5 3 2 5 3 4 4 4 8 8 8 8 9 9 10 9 9 9
5 5 6 6 9 9 6 5 6 5 7 9 9 9 10 10 6 3 3 3 5 3 2 3 3 4 4 3 5 7 7 8 9 9 9 9 9 9
4 5 8 9 10 10 6 5 6 6 4 4 5 6 6 7 8 5 4 4 4 4 2 2 2 2 4 3 2 2 3 7 9 9 9 9 9 5
4 4 5 10 11 10 8 6 8 6 4 4 4 4 3 3 4 4 4 4 5 5 3 2 2 2 3 4 3 3 3 3 4 5 7 9 10 7
5 4 5 9 11 11 8 8 10 7 3 3 3 4 3 3 3 3 4 4 5 6 5 4 4 4 3 4 4 3 2 3 3 4 4 7 8 10
5 8 9 10 10 8 9 9 7 3 3 3 4 4 3 3 3 3 3 4 4 5 5 5 5 4 4 5 5 4 4 4 3 3 4 4 5 5
4 7 9 9 7 6 6 5 3 3 4 4 4 3 2 2 3 3 3 3 3 3 3 4 5 5 5 6 5 6 4 4 3 4 5 5 5 4
4 3 3 2 3 3 3 3 3 3 4 3 3 3 3 3 3 2 3 3 3 3 3 2 3 4 6 5 5 6 5 4 4 4 4 5 5 5
5 3 3 4 4 4 4 3 3 4 4 3 3 4 4 3 3 3 3 3 4 4 4 3 2 2 3 4 7 6 5 4 4 4 4 5 7 5
4 3 4 4 4 4 4 4 4 4 3 3 4 4 3 3 3 3 3 3 4 4 3 3 2 2 4 5 3 4 4 4 4 4 4 4 6 7
3 4 4 4 4 4 4 4 4 3 3 4 4 4 4 3 3 4 4 4 4 4 3 3 3 3 4 4 4 4 5 4 4 4 5 5 6 8
4 4 4 4 4 4 4 4 4 4 4 4 4 4 4 3 4 4 4 6 5 4 4 4 4 4 2 1 3 4 4 5 6 5 4 4 5 5
4 4 4 4 4 4 4 4 4 4 4 4 4 4 4 4 4 4 4 4 4 4 4 3 2 2 1 3 4 4 5 5 5 7 8 7 4 4
4 4 4 4 4 3 3 4 4 4 4 4 4 3 3 3 3 3 4 4 3 3 3 2 2 2 2 3 3 4 5 5 4 4 4 6 9 11
Wind_Direction
239 242 247 255 248 236 221 204 218 269 279 264 273 290 303 298 310 315 305 311 317 317 317 316 317 317 315 316 315 316 316 313 311 310 307 302 300 302
238 240 251 251 250 239 227 231 220 234 264 265 257 277 302 310 315 315 304 314 314 312 311 311 309 309 308 308 309 309 311 312 311 310 310 307 304 303
250 241 250 244 241 241 235 236 237 229 255 274 265 282 285 292 304 307 303 302 302 306 307 307 304 305 305 304 304 307 310 311 309 308 307 306 305 305
251 247 253 248 241 238 234 237 241 235 241 268 279 278 272 276 285 295 303 301 295 301 302 301 300 304 305 304 302 302 305 305 304 305 305 305 302 302
241 242 249 242 247 243 235 237 243 250 241 252 272 273 276 282 291 293 290 290 291 296 298 296 297 301 301 299 298 299 301 301 303 305 304 303 303 302
242 240 241 236 238 240 242 238 237 244 245 251 267 274 274 274 272 288 297 292 290 296 294 294 294 296 296 297 295 296 295 296 300 302 300 300 302 302
249 244 243 242 244 246 245 235 227 236 243 250 262 272 271 272 268 272 283 295 289 278 286 287 288 286 288 290 288 285 288 291 294 297 300 302 302 301
249 251 249 250 252 257 258 252 242 240 240 244 255 256 262 258 260 265 275 291 291 277 286 286 274 273 273 267 278 281 282 286 291 295 298 301 301 299
242 246 254 253 254 245 255 259 258 257 252 245 247 250 253 247 249 260 260 265 268 277 293 284 277 272 271 277 280 278 283 288 294 296 298 299 299 299
241 238 243 249 246 246 244 251 253 256 257 252 243 249 248 241 235 246 254 266 272 266 245 270 278 275 281 276 277 279 288 293 297 297 297 299 300 302
249 243 240 243 252 256 249 249 259 261 264 260 259 260 258 256 250 246 254 269 280 275 231 253 280 291 286 276 272 279 288 293 297 299 297 296 298 303
253 246 247 250 255 255 243 239 254 259 255 266 267 268 262 258 254 241 232 249 267 272 236 239 270 301 296 278 274 286 291 291 297 298 299 300 301 299
255 251 247 254 257 256 254 242 250 259 246 246 256 260 259 256 255 245 232 233 245 253 238 228 256 257 259 286 290 275 266 278 293 292 296 300 298 294
253 252 250 255 257 258 256 251 257 259 241 241 251 256 254 254 254 251 246 244 244 247 239 225 239 240 254 271 277 278 275 269 276 284 288 298 297 294
253 253 258 261 261 258 255 256 253 237 228 243 248 252 247 246 249 259 263 257 263 258 246 236 235 240 243 254 266 272 287 284 268 270 283 286 283 287
262 262 264 261 255 255 257 251 229 220 229 238 244 247 242 241 247 248 260 264 271 273 255 239 236 234 247 254 257 267 264 266 277 282 285 283 280 271
258 264 259 252 241 242 241 234 225 225 235 233 237 245 247 251 256 251 248 252 254 263 273 267 251 246 243 244 257 258 260 262 263 271 282 287 281 271
262 251 249 244 239 235 237 238 232 230 228 231 235 237 241 245 255 257 254 251 256 258 259 259 268 288 283 262 235 246 251 258 269 272 272 281 285 282
251 245 246 245 242 236 235 236 236 230 221 225 232 236 239 243 247 252 254 258 259 261 259 249 246 249 270 282 268 229 239 263 275 278 272 270 277 284
237 242 246 246 242 238 238 239 239 232 226 228 232 231 229 237 246 250 249 252 259 263 263 254 243 238 243 261 277 282 258 251 262 275 283 285 279 283
242 242 243 244 242 238 238 236 232 231 230 230 232 233 231 234 245 247 250 255 260 258 259 261 255 257 262 268 278 283 282 270 266 265 276 288 292 293
241 243 242 241 240 237 234 231 229 229 226 229 234 234 231 233 242 245 246 249 253 253 260 269 271 266 248 248 262 276 290 301 297 287 272 255 258 270
239 240 241 238 237 236 233 229 229 230 227 228 230 231 232 239 242 242 246 246 249 251 258 268 273 266 258 252 263 277 285 294 301 306 296 285 277 275